Regional Weather Roundup
Issued by NWS Sterling, VA

Home | Current Version | Previous Version | Graphics & Text | Print | Product List | Glossary On
Versions: 1 2 3 4 5 6 7 8 9 10 11 12 13 14 15 16 17 18 19 20 21 22 23 24 25 26 27 28 29 30 31 32 33 34 35 36 37 38 39 40 41 42 43 44 45 46 47 48 49 50
000
ASUS41 KLWX 200610
RWRLWX

REGIONAL WEATHER ROUNDUP
NATIONAL WEATHER SERVICE BALTIMORE MD/WASHINGTON DC
100 AM EST FRI JAN 20 2017

Note: "FAIR" indicates few or no clouds below 12,000 feet
with no significant weather and/or obstructions to visibility.
 TC=TEMPERATURE CELSIUS

 * =Non NWS site. Station does not report precipitation (e.g. rain,
    snow, etc.), thunder, or fog.

DCZ001-MDZ009-015-VAZ040>042-051-053>054-200700-
WASHINGTON METRO

CITY           SKY/WX    TMP DP  RH WIND       PRES   REMARKS
WASHINGTON NAT MOCLDY    40  38  93 CALM      30.01F
DULLES         MOCLDY    33  32  96 CALM      29.99F
ANDREWS AFB    PTCLDY    34  32  91 CALM      29.99F
FT BELVOIR     CLOUDY    34  32  94 CALM      30.01F
QUANTICO       CLOUDY    38  37  97 CALM      30.03F
COLLEGE PARK*  CLOUDY    32  32 100 CALM      30.00
LEESBURG*      MOCLDY    34  34 100 CALM      30.00F
GAITHERSBURG*  CLOUDY    34  28  80 CALM      30.03F

$$

MDZ006>007-011-014-200700-
BALTIMORE METRO

CITY           SKY/WX    TMP DP  RH WIND       PRES   REMARKS
BWI AIRPORT    CLOUDY    33  33 100 CALM      30.01F
MD SCIENCE CTR   N/A     41  34  76 MISG      30.01F
ANNAPOLIS      CLOUDY    37  34  89 CALM      30.01F
FORT MEADE*    CLOUDY    30  30 100 CALM      30.03F

$$

MDZ012-015-019>023-200700-
MARYLAND EASTERN SHORE

CITY           SKY/WX    TMP DP  RH WIND       PRES   REMARKS
OCEAN CITY     CLOUDY    33  33 100 CALM      30.03F
SALISBURY      PTCLDY    32  32 100 CALM      30.02F
BAY BRIDGE AP* PTCLDY    36  34  93 CALM      30.01F
CAMBRIDGE*     CLOUDY    32  32 100 CALM      30.01F
EASTON*        CLOUDY    35  33  92 CALM      30.05F

$$

MDZ017>025-200700-
SOUTHERN MARYLAND

CITY           SKY/WX    TMP DP  RH WIND       PRES   REMARKS
PATUXENT RIVER PTCLDY    33  33 100 CALM      30.00F
ST INIGOES     PTCLDY    34  33  96 CALM      30.01F
LEONARDTOWN*   PTCLDY    34  32  93 CALM      30.02F

$$

MDZ003>005-200700-
NORTH CENTRAL MARYLAND

CITY           SKY/WX    TMP DP  RH WIND       PRES   REMARKS
FREDERICK*     CLOUDY    30  30 100 CALM      30.02F
HAGERSTOWN APT CLOUDY    37  31  78 NE3       29.97F
WESTMINSTER*     N/A     32  30  93 SE3       29.99F

$$

MDZ501>502-200700-
WESTERN MARYLAND

CITY           SKY/WX    TMP DP  RH WIND       PRES   REMARKS
OAKLAND*         N/A     34  32  93 SE12G18   29.88F WCI  25
CUMBERLAND*    PTCLDY    34  34 100 CALM      30.00F

$$

VAZ025>031-200700-
SHENANDOAH VALLEY

CITY           SKY/WX    TMP DP  RH WIND       PRES   REMARKS
WINCHESTER*    CLOUDY    34  32  93 CALM      29.97S
FRONT ROYAL*   CLOUDY    37  36  93 CALM      29.95S
LURAY*         MOCLDY    39  39 100 CALM      29.96S
NEW MARKET*    MOCLDY    37  36  93 CALM      29.96S
STAUNTON*      MOCLDY    38  37  93 CALM      29.97F
WAYNESBORO*    MOCLDY    44  37  78 SE3       29.95F

$$

WVZ021-048>050-054>055-200700-
EASTERN WEST VIRGINIA PANHANDLE

CITY           SKY/WX    TMP DP  RH WIND       PRES   REMARKS
MARTINSBURG    PTCLDY    34  31  88 CALM      29.97F
PETERSBURG*    CLOUDY    36  35  96 CALM      29.96F

$$

VAZ036>039-050-200700-
CENTRAL FOOTHILLS

CITY           SKY/WX    TMP DP  RH WIND       PRES   REMARKS
CHARLOTTESVILL PTCLDY    44  39  82 N3        29.98F
CULPEPER*      CLOUDY    37  36  96 CALM      30.01S
ORANGE*          N/A     37  37 100 CALM      30.01S
GORDONSVILLE*  PTCLDY    37  37  99 CALM      29.99F
WARRENTON*     CLOUDY    36  33  88 CALM      29.99S

$$

VAZ055>057-200700-
NORTH AND CENTRAL PIEDMONT

CITY           SKY/WX    TMP DP  RH WIND       PRES   REMARKS
FREDERICKSBRG* PTCLDY    38  38 100 CALM      30.00S
STAFFORD*      CLOUDY    34  34 100 CALM      30.05S

$$

NCZ024-NYZ072-PAZ021-071-VAZ022-071-200700-
OTHER REGIONAL OBSERVATIONS

CITY           SKY/WX    TMP DP  RH WIND       PRES   REMARKS
NEW YORK CITY  CLOUDY    42  33  70 E7        30.05R
PHILADELPHIA   MOCLDY    35  32  88 CALM      30.04F
PITTSBURGH     MOCLDY    33  33 100 E6        29.87F
ROANOKE        CLOUDY    47  39  74 CALM      29.96F
RICHMOND       CLOUDY    41  38  89 E3        30.01S
RALEIGH        MOCLDY    49  41  74 SE5       29.98F

$$

ANZ530>537-200700-
MARINE OBSERVATIONS

STATION/POSITION TIME  TEMP    WIND        PRES
                       AIR SEA DIR/SP/G
                 (UTC) (F)     (DEG/KT/KT) (MB)
THOMAS PT LIGHT  0600   39 39  100/  7/  7   N/A
BALT KEY BRIDGE  0548             CALM     1016.5F
COVE POINT       0548          120/  3/  4 1016.6F
LEWISETTA        0548      44  230/  2/  3 1016.0F
SOLOMONS ISLAND  0542      41  350/  2/  3   N/A
PINEY POINT      0548           CALM  /  1   N/A

$$




USA.gov is the U.S. government's official web portal to all federal, state and local government web resources and services.